Date,TemperatureHighF,TemperatureAvgF,TemperatureLowF,DewpointHighF,DewpointAvgF,DewpointLowF,HumidityHigh,HumidityAvg,HumidityLow,PressureMaxIn,PressureMinIn,WindSpeedMaxMPH,WindSpeedAvgMPH,GustSpeedMaxMPH,PrecipitationSumIn
2013-1-1,77.3,65.0,51.6,67.2,59.5,47.2,88,83,68,30.10,29.93,6,2,11,0.10
2013-1-2,56.5,51.9,45.3,51.4,45.2,40.1,83,78,71,30.20,30.01,6,3,11,0.05
2013-1-3,49.3,42.9,37.1,40.3,36.3,31.8,85,78,56,30.37,30.19,7,2,12,0.31
2013-1-4,59.5,43.9,34.9,42.1,32.4,26.4,83,67,31,30.44,30.32,5,1,8,0.00
2013-1-5,53.6,47.4,39.1,41.3,36.6,33.0,85,67,49,30.38,30.25,3,0,6,0.00
2013-1-6,52.6,49.0,42.2,46.8,42.5,37.7,88,78,65,30.30,30.19,4,1,9,0.06
2013-1-7,63.0,47.4,36.6,47.1,38.3,32.2,86,73,36,30.33,30.20,3,1,9,0.00
2013-1-8,68.0,57.8,44.7,58.6,51.0,39.9,84,79,69,30.25,30.14,3,0,7,0.00
2013-1-9,69.5,66.0,60.5,64.7,61.1,55.1,88,84,80,30.25,30.17,2,1,6,0.01
2013-1-10,73.8,68.7,63.3,68.8,64.3,59.0,88,86,81,30.23,30.03,5,1,12,0.54
2013-1-11,79.3,70.3,62.8,68.8,64.5,58.7,89,82,65,30.15,30.06,4,1,9,0.00
2013-1-12,76.5,71.5,69.6,70.1,67.2,65.9,89,86,74,30.12,29.98,2,0,6,0.01
2013-1-13,77.9,73.7,65.7,69.9,68.2,61.0,89,83,75,30.04,29.95,3,1,9,0.08
2013-1-14,68.2,56.7,46.2,61.9,52.0,41.9,86,84,78,30.13,30.03,6,2,8,0.01
2013-1-15,72.4,58.3,46.3,67.6,54.0,42.0,88,86,80,30.09,29.94,4,0,10,0.38
2013-1-16,62.4,50.5,43.7,58.5,46.0,39.5,87,84,81,30.07,29.95,5,2,12,0.08
2013-1-17,52.7,44.4,38.1,39.4,35.2,31.7,85,71,52,30.37,30.05,11,5,24,0.02
2013-1-18,60.1,45.7,36.5,42.8,35.4,31.8,83,69,39,30.52,30.37,5,2,10,0.00
2013-1-19,64.2,46.6,35.8,49.4,38.4,31.1,86,75,48,30.41,30.25,3,0,5,0.00
2013-1-20,67.5,50.2,37.6,51.5,41.6,33.2,87,74,43,30.28,30.13,3,0,9,0.00
2013-1-21,67.9,52.6,41.8,48.1,41.9,37.6,86,70,39,30.22,30.13,5,1,9,0.00
2013-1-22,62.8,47.3,38.9,45.5,35.4,26.1,83,66,34,30.38,30.22,4,1,9,0.00
2013-1-23,68.3,50.4,36.0,50.9,41.8,31.4,86,74,49,30.41,30.30,3,1,10,0.00
2013-1-24,74.4,57.1,42.7,57.5,49.3,38.5,87,76,52,30.35,30.22,5,1,10,0.00
2013-1-25,72.1,58.3,46.8,59.4,50.9,42.5,87,77,57,30.28,30.15,7,1,13,0.00
2013-1-26,74.5,61.3,52.1,61.6,54.4,47.4,88,79,54,30.26,30.18,4,1,9,0.00
2013-1-27,72.5,59.5,48.6,61.5,53.3,44.3,90,81,66,30.32,30.24,2,0,4,0.00
2013-1-28,74.9,65.1,54.0,64.9,59.0,49.6,88,81,66,30.28,30.16,2,0,4,0.00
2013-1-29,78.3,72.8,68.4,69.7,67.4,63.7,87,83,75,30.16,29.88,4,1,11,0.25
2013-1-30,75.2,63.6,46.1,69.6,56.4,30.3,88,78,51,30.13,29.71,10,4,16,0.69
2013-1-31,60.8,46.7,35.0,38.8,32.0,23.1,83,61,24,30.33,30.12,7,2,11,0.00